SKU077 SCEL-SCTE

Flight info

Callsign SKU077
Flight time 1h 23m
Altitude 37000
Route ANGOD6C ANGOD UQ803 ERUKA DCT SARTO SARTO1B
Aircraft A21N/M-SDE2E3FGHIRWXY/LB1

Departure

Time 2026-04-24 22:36
Airport Comodoro Arturo Merino Benítez International Airport (SCEL)

Arrival

Time 2026-04-24 23:59
Airport El Tepual International Airport (SCTE)
Time Latitude Longitude Altitude Speed Heading
2026-04-24 22:22 -33.39559 -70.78966 1570 ft 0 kts 184°
2026-04-24 22:27 -33.39546 -70.78965 1570 ft 3 kts 184°
2026-04-24 22:27 -33.39525 -70.78963 1570 ft 3 kts 182°
2026-04-24 22:27 -33.39503 -70.78967 1570 ft 3 kts 143°
2026-04-24 22:27 -33.39494 -70.78987 1570 ft 3 kts 92°
2026-04-24 22:28 -33.39494 -70.79009 1570 ft 0 kts 88°
2026-04-24 22:30 -33.39494 -70.79006 1570 ft 1 kts 88°
2026-04-24 22:31 -33.39493 -70.78985 1570 ft 4 kts 88°
2026-04-24 22:31 -33.39492 -70.78942 1570 ft 6 kts 86°
2026-04-24 22:31 -33.39469 -70.78884 1570 ft 10 kts 40°
2026-04-24 22:31 -33.39404 -70.78837 1570 ft 12 kts 30°
2026-04-24 22:32 -33.39318 -70.78795 1570 ft 15 kts
2026-04-24 22:32 -33.39210 -70.78801 1570 ft 17 kts 357°
2026-04-24 22:32 -33.39088 -70.78808 1570 ft 18 kts 357°
2026-04-24 22:32 -33.38954 -70.78816 1569 ft 20 kts 357°
2026-04-24 22:33 -33.38808 -70.78824 1569 ft 22 kts 358°
2026-04-24 22:33 -33.38649 -70.78829 1569 ft 24 kts 358°
2026-04-24 22:33 -33.38482 -70.78839 1569 ft 25 kts 357°
2026-04-24 22:33 -33.38300 -70.78850 1570 ft 27 kts 357°
2026-04-24 22:34 -33.38108 -70.78858 1570 ft 28 kts 358°
2026-04-24 22:34 -33.37930 -70.78869 1570 ft 16 kts 357°
2026-04-24 22:34 -33.37814 -70.78875 1570 ft 18 kts 357°
2026-04-24 22:34 -33.37686 -70.78882 1569 ft 19 kts 357°
2026-04-24 22:35 -33.37621 -70.78766 1569 ft 21 kts 72°
2026-04-24 22:35 -33.37644 -70.78669 1570 ft 11 kts 171°
2026-04-24 22:35 -33.37738 -70.78662 1570 ft 21 kts 178°
2026-04-24 22:35 -33.38264 -70.78635 1569 ft 128 kts 177°
2026-04-24 22:36 -33.39360 -70.78573 1919 ft 178 kts 177°
2026-04-24 22:36 -33.40668 -70.78521 2802 ft 203 kts 176°
2026-04-24 22:36 -33.42146 -70.78432 3563 ft 223 kts 177°
2026-04-24 22:36 -33.43795 -70.78332 4109 ft 250 kts 177°
2026-04-24 22:37 -33.45577 -70.78222 4955 ft 262 kts 176°
2026-04-24 22:37 -33.47424 -70.78109 5888 ft 269 kts 176°
2026-04-24 22:37 -33.49319 -70.77996 6818 ft 276 kts 177°
2026-04-24 22:37 -33.51258 -70.77880 7760 ft 281 kts 178°
2026-04-24 22:38 -33.53235 -70.77782 8748 ft 286 kts 181°
2026-04-24 22:38 -33.55214 -70.78095 9738 ft 289 kts 194°
2026-04-24 22:38 -33.57204 -70.78659 10550 ft 302 kts 195°
2026-04-24 22:38 -33.59261 -70.79262 10937 ft 327 kts 195°
2026-04-24 22:39 -33.61598 -70.79987 11291 ft 352 kts 197°
2026-04-24 22:39 -33.64043 -70.80766 11622 ft 375 kts 197°
2026-04-24 22:39 -33.66624 -70.81578 12119 ft 390 kts 196°
2026-04-24 22:39 -33.69269 -70.82406 12869 ft 395 kts 197°
2026-04-24 22:40 -33.71941 -70.83240 13660 ft 399 kts 197°
2026-04-24 22:40 -33.74643 -70.84077 14394 ft 402 kts 197°
2026-04-24 22:40 -33.77357 -70.84920 15095 ft 404 kts 197°
2026-04-24 22:40 -33.80082 -70.85766 15769 ft 406 kts 197°
2026-04-24 22:41 -33.82829 -70.86624 16426 ft 408 kts 198°
2026-04-24 22:41 -33.85587 -70.87488 17059 ft 411 kts 198°
2026-04-24 22:41 -33.88366 -70.88362 17703 ft 413 kts 198°
2026-04-24 22:41 -33.91154 -70.89233 18323 ft 416 kts 198°
2026-04-24 22:42 -33.93964 -70.90113 18892 ft 418 kts 198°
2026-04-24 22:42 -33.96786 -70.91002 19458 ft 419 kts 198°
2026-04-24 22:42 -33.99606 -70.91890 20035 ft 419 kts 199°
2026-04-24 22:42 -34.02449 -70.92744 20625 ft 423 kts 197°
2026-04-24 22:43 -34.05324 -70.93532 21207 ft 424 kts 197°
2026-04-24 22:43 -34.08216 -70.94318 21793 ft 426 kts 198°
2026-04-24 22:43 -34.11078 -70.95097 22402 ft 429 kts 198°
2026-04-24 22:43 -34.14000 -70.95891 23030 ft 431 kts 198°
2026-04-24 22:44 -34.16932 -70.96691 23668 ft 433 kts 198°
2026-04-24 22:44 -34.19880 -70.97494 24222 ft 435 kts 198°
2026-04-24 22:44 -34.22839 -70.98298 24746 ft 436 kts 198°
2026-04-24 22:44 -34.25810 -70.99108 25233 ft 438 kts 198°
2026-04-24 22:45 -34.28787 -70.99920 25688 ft 440 kts 198°
2026-04-24 22:45 -34.31775 -71.00736 26193 ft 440 kts 198°
2026-04-24 22:45 -34.34752 -71.01546 26849 ft 437 kts 198°
2026-04-24 22:45 -34.37708 -71.02351 27512 ft 433 kts 199°
2026-04-24 22:46 -34.40604 -71.03143 28144 ft 429 kts 199°
2026-04-24 22:46 -34.43505 -71.03941 28749 ft 426 kts 199°
2026-04-24 22:46 -34.46393 -71.04736 29398 ft 423 kts 199°
2026-04-24 22:46 -34.49249 -71.05519 30042 ft 420 kts 199°
2026-04-24 22:47 -34.52088 -71.06298 30584 ft 418 kts 199°
2026-04-24 22:47 -34.54925 -71.07070 31029 ft 417 kts 199°
2026-04-24 22:47 -34.57762 -71.07844 31464 ft 416 kts 200°
2026-04-24 22:47 -34.60583 -71.08616 31945 ft 415 kts 200°
2026-04-24 22:48 -34.63387 -71.09386 32429 ft 413 kts 200°
2026-04-24 22:48 -34.66183 -71.10157 32887 ft 411 kts 200°
2026-04-24 22:48 -34.68969 -71.10926 33307 ft 410 kts 200°
2026-04-24 22:48 -34.71750 -71.11693 33777 ft 408 kts 200°
2026-04-24 22:49 -34.74539 -71.12400 34185 ft 409 kts 199°
2026-04-24 22:49 -34.77329 -71.13077 34573 ft 408 kts 199°
2026-04-24 22:49 -34.80071 -71.13744 34878 ft 407 kts 199°
2026-04-24 22:49 -34.82849 -71.14419 35151 ft 407 kts 200°
2026-04-24 22:50 -34.85630 -71.15092 35408 ft 408 kts 200°
2026-04-24 22:50 -34.88420 -71.15768 35660 ft 408 kts 200°
2026-04-24 22:50 -34.91209 -71.16450 35904 ft 409 kts 200°
2026-04-24 22:50 -34.94004 -71.17135 36152 ft 409 kts 200°
2026-04-24 22:51 -34.96798 -71.17818 36397 ft 410 kts 200°
2026-04-24 22:51 -34.99593 -71.18501 36645 ft 410 kts 200°
2026-04-24 22:51 -35.02398 -71.19185 36881 ft 411 kts 200°
2026-04-24 22:51 -35.05202 -71.19870 37109 ft 411 kts 201°
2026-04-24 22:52 -35.08013 -71.20557 37254 ft 414 kts 201°
2026-04-24 22:52 -35.10806 -71.21242 37266 ft 414 kts 201°
2026-04-24 22:52 -35.16464 -71.22624 37244 ft 414 kts 201°
2026-04-24 22:53 -35.22119 -71.24008 37238 ft 414 kts 201°
2026-04-24 22:53 -35.27775 -71.25394 37267 ft 414 kts 200°
2026-04-24 22:54 -35.33433 -71.26786 37248 ft 415 kts 201°
2026-04-24 22:54 -35.39095 -71.28183 37241 ft 414 kts 200°
2026-04-24 22:55 -35.44751 -71.29581 37235 ft 414 kts 200°
2026-04-24 22:55 -35.50411 -71.30977 37239 ft 414 kts 200°
2026-04-24 22:56 -35.56067 -71.32378 37251 ft 415 kts 200°
2026-04-24 22:56 -35.61733 -71.33786 37239 ft 416 kts 200°
2026-04-24 22:57 -35.67367 -71.35183 37233 ft 415 kts 200°
2026-04-24 22:57 -35.73048 -71.36595 37249 ft 415 kts 200°
2026-04-24 22:58 -35.78712 -71.38007 37267 ft 415 kts 200°
2026-04-24 22:58 -35.84384 -71.39421 37252 ft 416 kts 200°
2026-04-24 22:59 -35.90027 -71.40823 37249 ft 415 kts 200°
2026-04-24 23:00 -35.98530 -71.42942 37248 ft 415 kts 200°
2026-04-24 23:00 -36.04186 -71.44358 37260 ft 414 kts 200°
2026-04-24 23:01 -36.09855 -71.45781 37256 ft 416 kts 200°
2026-04-24 23:01 -36.15526 -71.47210 37253 ft 415 kts 200°
2026-04-24 23:02 -36.21191 -71.48634 37237 ft 411 kts 200°
2026-04-24 23:02 -36.26790 -71.50047 37280 ft 415 kts 200°
2026-04-24 23:03 -36.32464 -71.51481 37253 ft 416 kts 200°
2026-04-24 23:03 -36.38134 -71.52916 37259 ft 416 kts 200°
2026-04-24 23:04 -36.42848 -71.54111 37251 ft 415 kts 200°
2026-04-24 23:04 -36.48512 -71.55555 37254 ft 416 kts 200°
2026-04-24 23:05 -36.54185 -71.56998 37274 ft 416 kts 200°
2026-04-24 23:05 -36.59863 -71.58441 37263 ft 417 kts 200°
2026-04-24 23:06 -36.65552 -71.59892 37276 ft 417 kts 199°
2026-04-24 23:06 -36.71232 -71.61345 37266 ft 417 kts 200°
2026-04-24 23:07 -36.76920 -71.62801 37284 ft 417 kts 199°
2026-04-24 23:07 -36.82618 -71.64261 37265 ft 418 kts 200°
2026-04-24 23:08 -36.88316 -71.65718 37276 ft 418 kts 199°
2026-04-24 23:08 -36.93977 -71.67168 37275 ft 417 kts 200°
2026-04-24 23:09 -36.99670 -71.68632 37313 ft 417 kts 199°
2026-04-24 23:09 -37.05372 -71.70099 37290 ft 419 kts 199°
2026-04-24 23:10 -37.11082 -71.71574 37284 ft 419 kts 199°
2026-04-24 23:10 -37.16797 -71.73050 37291 ft 418 kts 199°
2026-04-24 23:11 -37.22502 -71.74528 37288 ft 419 kts 199°
2026-04-24 23:11 -37.28185 -71.76002 37297 ft 420 kts 199°
2026-04-24 23:12 -37.33914 -71.77490 37292 ft 420 kts 199°
2026-04-24 23:12 -37.39634 -71.78975 37298 ft 419 kts 199°
2026-04-24 23:13 -37.45356 -71.80451 37299 ft 420 kts 199°
2026-04-24 23:13 -37.51074 -71.81937 37291 ft 419 kts 199°
2026-04-24 23:14 -37.56785 -71.83432 37297 ft 419 kts 199°
2026-04-24 23:14 -37.62460 -71.84914 37301 ft 419 kts 199°
2026-04-24 23:15 -37.68180 -71.86416 37298 ft 419 kts 199°
2026-04-24 23:15 -37.73873 -71.88009 37316 ft 418 kts 201°
2026-04-24 23:16 -37.79520 -71.89760 37302 ft 418 kts 201°
2026-04-24 23:16 -37.85165 -71.91522 37281 ft 415 kts 201°
2026-04-24 23:17 -37.90783 -71.93280 37304 ft 416 kts 201°
2026-04-24 23:17 -37.96373 -71.95029 37336 ft 417 kts 201°
2026-04-24 23:18 -38.02026 -71.96795 37316 ft 418 kts 201°
2026-04-24 23:18 -38.07688 -71.98570 37319 ft 419 kts 201°
2026-04-24 23:19 -38.13343 -72.00347 37318 ft 419 kts 201°
2026-04-24 23:19 -38.19007 -72.02129 37353 ft 419 kts 201°
2026-04-24 23:20 -38.24637 -72.03905 37332 ft 420 kts 201°
2026-04-24 23:20 -38.30312 -72.05694 37327 ft 420 kts 201°
2026-04-24 23:21 -38.35988 -72.07488 37328 ft 420 kts 201°
2026-04-24 23:21 -38.41664 -72.09287 37363 ft 420 kts 201°
2026-04-24 23:22 -38.47348 -72.11089 37339 ft 421 kts 201°
2026-04-24 23:22 -38.53043 -72.12900 37331 ft 421 kts 201°
2026-04-24 23:23 -38.58733 -72.14712 37327 ft 421 kts 201°
2026-04-24 23:23 -38.64424 -72.16529 37332 ft 421 kts 201°
2026-04-24 23:24 -38.70119 -72.18354 37341 ft 423 kts 201°
2026-04-24 23:24 -38.75793 -72.20173 37327 ft 423 kts 201°
2026-04-24 23:25 -38.81503 -72.22002 37330 ft 423 kts 201°
2026-04-24 23:25 -38.87214 -72.23837 37322 ft 422 kts 201°
2026-04-24 23:26 -38.92920 -72.25675 37353 ft 423 kts 201°
2026-04-24 23:26 -38.98609 -72.27506 37331 ft 422 kts 201°
2026-04-24 23:27 -39.04312 -72.29351 37321 ft 422 kts 201°
2026-04-24 23:27 -39.10010 -72.31195 37324 ft 422 kts 201°
2026-04-24 23:28 -39.15706 -72.33038 37335 ft 423 kts 201°
2026-04-24 23:28 -39.21381 -72.34879 37324 ft 422 kts 201°
2026-04-24 23:29 -39.27085 -72.36732 37323 ft 423 kts 201°
2026-04-24 23:29 -39.32797 -72.38591 37321 ft 423 kts 201°
2026-04-24 23:30 -39.38503 -72.40449 37332 ft 423 kts 201°
2026-04-24 23:30 -39.44182 -72.42290 37322 ft 423 kts 201°
2026-04-24 23:31 -39.49895 -72.44150 37326 ft 423 kts 201°
2026-04-24 23:31 -39.55613 -72.46022 37323 ft 423 kts 201°
2026-04-24 23:32 -39.61327 -72.47898 37333 ft 423 kts 201°
2026-04-24 23:32 -39.67039 -72.49775 37321 ft 423 kts 201°
2026-04-24 23:33 -39.72722 -72.51646 37316 ft 423 kts 201°
2026-04-24 23:33 -39.78452 -72.53518 37323 ft 424 kts 200°
2026-04-24 23:34 -39.84176 -72.55356 37322 ft 423 kts 200°
2026-04-24 23:34 -39.89895 -72.57196 37330 ft 423 kts 200°
2026-04-24 23:35 -39.95580 -72.59033 37324 ft 423 kts 200°
2026-04-24 23:35 -40.01296 -72.60887 37328 ft 422 kts 200°
2026-04-24 23:36 -40.07009 -72.62742 37337 ft 422 kts 200°
2026-04-24 23:36 -40.09842 -72.63659 37005 ft 418 kts 200°
2026-04-24 23:36 -40.12663 -72.64574 36481 ft 416 kts 200°
2026-04-24 23:36 -40.15474 -72.65490 35850 ft 417 kts 200°
2026-04-24 23:37 -40.18292 -72.66414 35176 ft 418 kts 200°
2026-04-24 23:37 -40.21125 -72.67344 34478 ft 421 kts 200°
2026-04-24 23:37 -40.26836 -72.69215 32963 ft 423 kts 200°
2026-04-24 23:38 -40.29691 -72.70150 32213 ft 424 kts 199°
2026-04-24 23:38 -40.32557 -72.71086 31463 ft 424 kts 199°
2026-04-24 23:38 -40.35385 -72.72011 30703 ft 425 kts 199°
2026-04-24 23:38 -40.38265 -72.72955 29806 ft 426 kts 199°
2026-04-24 23:39 -40.41146 -72.73898 28887 ft 427 kts 199°
2026-04-24 23:39 -40.44045 -72.74850 28019 ft 430 kts 199°
2026-04-24 23:39 -40.46946 -72.75803 27135 ft 430 kts 198°
2026-04-24 23:39 -40.49854 -72.76762 26255 ft 430 kts 198°
2026-04-24 23:40 -40.52753 -72.77715 25440 ft 428 kts 198°
2026-04-24 23:40 -40.55641 -72.78665 24661 ft 426 kts 198°
2026-04-24 23:40 -40.58474 -72.79598 23919 ft 424 kts 198°
2026-04-24 23:40 -40.61328 -72.80540 23069 ft 422 kts 198°
2026-04-24 23:41 -40.64205 -72.81489 22256 ft 419 kts 198°
2026-04-24 23:41 -40.66990 -72.82407 21471 ft 417 kts 198°
2026-04-24 23:41 -40.69803 -72.83330 20719 ft 414 kts 198°
2026-04-24 23:41 -40.72594 -72.84250 19987 ft 411 kts 198°
2026-04-24 23:42 -40.75357 -72.85164 19267 ft 408 kts 198°
2026-04-24 23:42 -40.78099 -72.86072 18570 ft 405 kts 197°
2026-04-24 23:42 -40.80824 -72.86977 17836 ft 402 kts 197°
2026-04-24 23:42 -40.83523 -72.87872 17178 ft 397 kts 198°
2026-04-24 23:43 -40.86191 -72.88763 16541 ft 393 kts 198°
2026-04-24 23:43 -40.88832 -72.89642 15890 ft 390 kts 198°
2026-04-24 23:43 -40.91456 -72.90515 15249 ft 387 kts 198°
2026-04-24 23:43 -40.94061 -72.91370 14612 ft 385 kts 196°
2026-04-24 23:44 -40.96706 -72.91882 13720 ft 385 kts 189°
2026-04-24 23:44 -40.99356 -72.92205 12926 ft 379 kts 189°
2026-04-24 23:44 -41.01962 -72.92515 12259 ft 371 kts 189°
2026-04-24 23:44 -41.04485 -72.92820 11872 ft 357 kts 189°
2026-04-24 23:45 -41.06909 -72.93117 11624 ft 341 kts 189°
2026-04-24 23:45 -41.09216 -72.93400 11421 ft 326 kts 189°
2026-04-24 23:45 -41.11396 -72.93669 11245 ft 312 kts 189°
2026-04-24 23:45 -41.13535 -72.93935 11100 ft 298 kts 190°
2026-04-24 23:46 -41.15556 -72.94187 10961 ft 285 kts 190°
2026-04-24 23:46 -41.17466 -72.94424 10793 ft 275 kts 190°
2026-04-24 23:46 -41.19362 -72.94662 10410 ft 273 kts 190°
2026-04-24 23:46 -41.21251 -72.94900 9978 ft 272 kts 190°
2026-04-24 23:47 -41.23137 -72.95138 9530 ft 271 kts 189°
2026-04-24 23:47 -41.24992 -72.95371 9280 ft 263 kts 189°
2026-04-24 23:47 -41.26787 -72.95549 9121 ft 253 kts 186°
2026-04-24 23:47 -41.28514 -72.95615 8998 ft 242 kts 186°
2026-04-24 23:48 -41.30155 -72.95665 8874 ft 230 kts 186°
2026-04-24 23:48 -41.31703 -72.95713 8736 ft 221 kts 186°
2026-04-24 23:48 -41.33229 -72.95765 8463 ft 217 kts 186°
2026-04-24 23:48 -41.34737 -72.95817 8144 ft 216 kts 186°
2026-04-24 23:49 -41.36237 -72.95867 7807 ft 216 kts 185°
2026-04-24 23:49 -41.37740 -72.95919 7487 ft 215 kts 185°
2026-04-24 23:49 -41.39235 -72.95971 7143 ft 215 kts 185°
2026-04-24 23:49 -41.40738 -72.96022 6727 ft 216 kts 184°
2026-04-24 23:50 -41.42243 -72.96073 6327 ft 216 kts 184°
2026-04-24 23:50 -41.43240 -72.96107 6062 ft 216 kts 184°
2026-04-24 23:50 -41.45222 -72.96172 5555 ft 215 kts 184°
2026-04-24 23:50 -41.46713 -72.96221 5173 ft 214 kts 184°
2026-04-24 23:51 -41.48198 -72.96269 4776 ft 213 kts 184°
2026-04-24 23:51 -41.49677 -72.96319 4377 ft 213 kts 184°
2026-04-24 23:51 -41.51157 -72.96367 4042 ft 213 kts 184°
2026-04-24 23:51 -41.52161 -72.96401 3970 ft 213 kts 184°
2026-04-24 23:52 -41.53619 -72.96448 3960 ft 210 kts 184°
2026-04-24 23:52 -41.55080 -72.96494 3965 ft 211 kts 184°
2026-04-24 23:52 -41.56548 -72.96541 3971 ft 211 kts 184°
2026-04-24 23:52 -41.58017 -72.96590 3972 ft 211 kts 184°
2026-04-24 23:53 -41.59470 -72.96672 3966 ft 203 kts 189°
2026-04-24 23:53 -41.60736 -72.97227 3958 ft 187 kts 213°
2026-04-24 23:53 -41.61679 -72.98380 3904 ft 184 kts 241°
2026-04-24 23:53 -41.61980 -73.00025 3675 ft 185 kts 269°
2026-04-24 23:54 -41.61904 -73.01741 3412 ft 185 kts 272°
2026-04-24 23:54 -41.61831 -73.03463 3143 ft 185 kts 271°
2026-04-24 23:54 -41.61783 -73.05177 2971 ft 185 kts 270°
2026-04-24 23:54 -41.61733 -73.06895 2955 ft 185 kts 274°
2026-04-24 23:55 -41.61373 -73.08516 2959 ft 175 kts 299°
2026-04-24 23:55 -41.60646 -73.09651 2971 ft 154 kts 319°
2026-04-24 23:55 -41.59649 -73.10051 2641 ft 152 kts 355°
2026-04-24 23:55 -41.58589 -73.09944 2346 ft 153 kts
2026-04-24 23:56 -41.57529 -73.09890 2090 ft 152 kts 359°
2026-04-24 23:56 -41.56470 -73.09846 1951 ft 152 kts 359°
2026-04-24 23:56 -41.55412 -73.09807 1952 ft 151 kts 360°
2026-04-24 23:56 -41.54361 -73.09769 1994 ft 151 kts 360°
2026-04-24 23:57 -41.53357 -73.09733 1960 ft 136 kts 359°
2026-04-24 23:57 -41.52422 -73.09700 1819 ft 133 kts 360°
2026-04-24 23:57 -41.51496 -73.09667 1633 ft 133 kts
2026-04-24 23:57 -41.50573 -73.09634 1449 ft 133 kts
2026-04-24 23:58 -41.49662 -73.09601 1267 ft 132 kts
2026-04-24 23:58 -41.48747 -73.09569 1079 ft 131 kts
2026-04-24 23:58 -41.47837 -73.09536 897 ft 130 kts
2026-04-24 23:58 -41.46937 -73.09504 720 ft 129 kts
2026-04-24 23:59 -41.46042 -73.09471 544 ft 128 kts
2026-04-24 23:59 -41.45152 -73.09440 358 ft 128 kts
2026-04-24 23:59 -41.44337 -73.09413 293 ft 94 kts
2026-04-24 23:59 -41.43950 -73.09401 297 ft 40 kts
2026-04-25 00:00 -41.43774 -73.09396 304 ft 20 kts 353°
2026-04-25 00:00 -41.43718 -73.09495 305 ft 15 kts 271°
2026-04-25 00:00 -41.43717 -73.09564 309 ft 5 kts 270°
2026-04-25 00:00 -41.43693 -73.09605 308 ft 8 kts
2026-04-25 00:01 -41.43625 -73.09608 307 ft 11 kts 358°
2026-04-25 00:01 -41.43540 -73.09604 306 ft 14 kts
2026-04-25 00:01 -41.43436 -73.09600 308 ft 16 kts
2026-04-25 00:01 -41.43372 -73.09623 307 ft 11 kts 285°
2026-04-25 00:02 -41.43369 -73.09707 307 ft 1 kts 271°
2026-04-25 00:02 -41.43369 -73.09724 307 ft 3 kts 270°
2026-04-25 00:02 -41.43368 -73.09744 307 ft 0 kts 270°